Location: *
(50.8667°S, 179.2667°W)
Time: 19:01:36
(UTC+00:00)

SL-16 R/B - Pass Details

Date: 02 October 2023
Orbit: 842 x 845 km, 71.0° (Epoch: 11 December)

Event Time Altitude Azimuth Distance (km) Brightness Sun altitude
Rises 15:53:45 0° 357° (N) 3,404 5.1 -14.4°
Reaches altitude 10° 15:56:19 10° 4° (N) 2,477 4.4 -14.0°
Maximum altitude 16:01:34 40° 72° (ENE) 1,249 3.5 -13.2°
Drops below altitude 10° 16:06:52 10° 139° (SE) 2,503 5.7 -12.5°
Sets 16:09:28 0° 146° (SE) 3,444 6.4 -12.1°
